Location: Alladorf
(49.9620°N, 11.3790°E)
Time: 21:29:25
(UTC+00:00)

ATLAS CENTAUR R/B - Pass Details

Date: 29 November 2020
Orbit: 477 x 668 km, 64.7° (Epoch: 12 January)

Event Time Altitude Azimuth Distance (km) Brightness Sun altitude
Exits shadow 04:32:33 79° 297° (WNW) 518 0.9 -21.1°
Maximum altitude 04:32:45 85° 231° (SW) 511 1.0 -21.1°
Drops below altitude 10° 04:36:40 10° 143° (SE) 1,753 4.5 -20.5°
Sets 04:38:53 0° 143° (SE) 2,669 5.5 -20.1°
